SILU-1

Last updated on Fri Aug 04 2017 00:15:03 GMT+0000 (Coordinated Universal Time)

1 42903U 17021F 17215.47618053 .00007421 00000-0 97734-4 0 9997 2 42903 42.7829 74.0094 0006050 239.6976 187.9339 15.58894793 143
UTC large
Height (km)
Speed (km/s)
/
Latitude / Longitude
Inclination (degrees)
Orbital Period (minutes)
Azimuth
Elevation
Range (km)
Doppler Factor

Next 0 passes for location: London (51.5072 / 0.1276)

Sorry there are no passes over London.